Location: Vinland
(47.7731°N, 122.6974°W)
Time: 23:05:52
(UTC+00:00)

S-56A Canister/Altair - Pass Details

Date: 05 April 2023
Orbit: 639 x 2492 km, 38.9° (Epoch: 02 June)

Event Time Altitude Azimuth Distance (km) Brightness Sun altitude
Rises 06:34:16 0° 278° (W) 5,406 12.3 -31.9°
Reaches altitude 10° 06:38:30 10° 266° (W) 4,653 11.7 -32.3°
Maximum altitude 06:48:06 24° 220° (SW) 3,982 10.9 -33.0°
Enters shadow 06:49:35 24° 212° (SSW) 4,039 10.8 -33.1°
